When you browse on this site, cookies collect data to enhance your experience and personalize the content and advertising you see.
Visit our Privacy Policy to learn more. By continuing to use the site, you agree to this use of cookies and data.
  • Em Portugal
  • Lista de países
  • Para 7 dias
  • Temperatura da água
  • Mapas de satélite
  • Mapa do tempo
  • Widgets de tempo
  • user-avatar
    Iniciar Sessão

    Previsão horária em Brusbeno

    Hoje, 18 Janeiro, Sexta-feira

    Tempo Temperatura Precipitação Vento Pressão Humidade
    00:00 +23°C° 0 mm 2 m/s 759 mmHg 79%
    01:00 +23°C° 0 mm 2 m/s 759 mmHg 82%
    02:00 +23°C° 0 mm 2 m/s 759 mmHg 82%
    03:00 +23°C° 0 mm 1 m/s 759 mmHg 83%
    04:00 +23°C° 0 mm 1 m/s 759 mmHg 81%
    05:00 +24°C° 0 mm 1 m/s 760 mmHg 78%
    06:00 +25°C° 0 mm 1 m/s 760 mmHg 75%
    07:00 +25°C° 0 mm 1 m/s 760 mmHg 72%
    08:00 +27°C° 0 mm 1 m/s 760 mmHg 64%
    09:00 +29°C° 0 mm 2 m/s 760 mmHg 57%
    10:00 +31°C° 0 mm 2 m/s 761 mmHg 50%
    11:00 +33°C° 0 mm 3 m/s 760 mmHg 47%
    12:00 +34°C° 0 mm 4 m/s 760 mmHg 44%
    13:00 +35°C° 0 mm 4 m/s 759 mmHg 41%
    14:00 +34°C° 0 mm 4 m/s 759 mmHg 44%
    15:00 +34°C° 0 mm 4 m/s 759 mmHg 46%
    16:00 +33°C° 0 mm 5 m/s 759 mmHg 49%
    17:00 +30°C° 0 mm 4 m/s 759 mmHg 55%
    18:00 +29°C° 0 mm 4 m/s 759 mmHg 62%
    19:00 +27°C° 0 mm 3 m/s 760 mmHg 69%
    20:00 +26°C° 0 mm 3 m/s 760 mmHg 73%
    21:00 +25°C° 0 mm 3 m/s 761 mmHg 77%
    22:00 +25°C° 0 mm 3 m/s 761 mmHg 82%
    23:00 +24°C° 0 mm 2 m/s 761 mmHg 83%

    Amanhã, 19 Janeiro, Sábado

    Tempo Temperatura Precipitação Vento Pressão Humidade
    00:00 +24°C° 0 mm 2 m/s 761 mmHg 85%
    01:00 +24°C° 0 mm 2 m/s 761 mmHg 87%
    02:00 +23°C° 0 mm 2 m/s 761 mmHg 87%
    03:00 +23°C° 0 mm 1 m/s 760 mmHg 88%
    04:00 +23°C° 0 mm 1 m/s 760 mmHg 89%
    05:00 +24°C° 0 mm 1 m/s 761 mmHg 86%
    06:00 +25°C° 0 mm 1 m/s 761 mmHg 82%
    07:00 +25°C° 0 mm 1 m/s 762 mmHg 78%
    08:00 +28°C° 0 mm 1 m/s 761 mmHg 68%
    09:00 +30°C° 0 mm 1 m/s 761 mmHg 57%
    10:00 +33°C° 0 mm 1 m/s 761 mmHg 46%
    11:00 +34°C° 0 mm 2 m/s 761 mmHg 43%
    12:00 +35°C° 0 mm 3 m/s 760 mmHg 40%
    13:00 +36°C° 0 mm 4 m/s 760 mmHg 38%
    14:00 +35°C° 0 mm 4 m/s 759 mmHg 41%
    15:00 +34°C° 0 mm 4 m/s 759 mmHg 44%
    16:00 +33°C° 0 mm 4 m/s 758 mmHg 47%
    17:00 +32°C° 0 mm 4 m/s 759 mmHg 55%
    18:00 +29°C° 0 mm 4 m/s 759 mmHg 63%
    19:00 +27°C° 0 mm 3 m/s 760 mmHg 70%
    20:00 +26°C° 0 mm 3 m/s 760 mmHg 75%
    21:00 +25°C° 0 mm 2 m/s 761 mmHg 81%
    22:00 +24°C° 0 mm 1 m/s 762 mmHg 86%
    23:00 +24°C° 0 mm 1 m/s 761 mmHg 87%

    Depois de amanhã, 20 Janeiro, Domingo

    Tempo Temperatura Precipitação Vento Pressão Humidade
    00:00 +23°C° 0 mm 1 m/s 761 mmHg 89%
    01:00 +23°C° 0 mm 1 m/s 761 mmHg 91%
    02:00 +23°C° 0 mm 1 m/s 761 mmHg 91%
    03:00 +23°C° 0 mm 1 m/s 761 mmHg 91%
    04:00 +23°C° 0 mm 1 m/s 761 mmHg 91%
    05:00 +24°C° 0 mm 1 m/s 761 mmHg 86%
    06:00 +25°C° 0 mm 1 m/s 762 mmHg 81%
    07:00 +26°C° 0 mm 1 m/s 762 mmHg 75%
    08:00 +28°C° 0 mm 2 m/s 762 mmHg 66%
    09:00 +31°C° 0 mm 2 m/s 762 mmHg 56%
    10:00 +34°C° 0 mm 3 m/s 762 mmHg 46%
    11:00 +34°C° 0 mm 3 m/s 762 mmHg 45%
    12:00 +35°C° 0 mm 4 m/s 761 mmHg 43%
    13:00 +36°C° 0 mm 4 m/s 761 mmHg 41%
    14:00 +35°C° 0 mm 4 m/s 760 mmHg 45%
    15:00 +34°C° 0 mm 4 m/s 760 mmHg 48%
    16:00 +33°C° 0 mm 4 m/s 760 mmHg 52%
    17:00 +32°C° 0 mm 4 m/s 760 mmHg 59%
    18:00 +29°C° 0 mm 3 m/s 760 mmHg 66%
    19:00 +27°C° 0 mm 3 m/s 761 mmHg 73%
    20:00 +27°C° 0 mm 2 m/s 761 mmHg 76%
    21:00 +26°C° 0 mm 2 m/s 762 mmHg 79%
    22:00 +25°C° 0 mm 2 m/s 763 mmHg 82%
    23:00 +25°C° 0 mm 1 m/s 762 mmHg 83%

    21 Janeiro, Segunda-feira

    Tempo Temperatura Precipitação Vento Pressão Humidade
    00:00 +25°C° 0 mm 1 m/s 761 mmHg 84%
    01:00 +24°C° 0 mm 1 m/s 761 mmHg 85%
    02:00 +24°C° 0 mm 1 m/s 761 mmHg 86%
    03:00 +24°C° 0 mm 1 m/s 761 mmHg 87%
    04:00 +24°C° 0 mm 1 m/s 761 mmHg 87%
    05:00 +25°C° 0 mm 1 m/s 761 mmHg 82%
    06:00 +26°C° 0 mm 2 m/s 761 mmHg 77%
    07:00 +27°C° 0 mm 2 m/s 762 mmHg 72%
    08:00 +29°C° 0 mm 2 m/s 762 mmHg 63%
    09:00 +31°C° 0 mm 3 m/s 762 mmHg 55%
    10:00 +33°C° 0 mm 3 m/s 762 mmHg 46%
    11:00 +34°C° 0 mm 4 m/s 761 mmHg 45%
    12:00 +34°C° 0 mm 4 m/s 761 mmHg 44%
    13:00 +35°C° 0 mm 4 m/s 760 mmHg 42%
    14:00 +34°C° 0 mm 4 m/s 760 mmHg 45%
    15:00 +33°C° 0 mm 4 m/s 760 mmHg 48%
    16:00 +33°C° 0 mm 4 m/s 759 mmHg 50%
    17:00 +30°C° 0 mm 4 m/s 760 mmHg 58%
    18:00 +28°C° 0 mm 3 m/s 760 mmHg 65%
    19:00 +27°C° 0 mm 3 m/s 761 mmHg 72%
    20:00 +26°C° 0 mm 3 m/s 761 mmHg 76%
    21:00 +26°C° 0 mm 2 m/s 762 mmHg 79%
    22:00 +25°C° 0 mm 2 m/s 762 mmHg 83%
    23:00 +25°C° 0 mm 2 m/s 762 mmHg 84%

    22 Janeiro, Terça-feira

    Tempo Temperatura Precipitação Vento Pressão Humidade
    00:00 +25°C° 0 mm 2 m/s 762 mmHg 84%
    01:00 +25°C° 0 mm 1 m/s 761 mmHg 85%
    02:00 +24°C° 0 mm 1 m/s 761 mmHg 85%
    03:00 +24°C° 0 mm 1 m/s 761 mmHg 84%
    04:00 +24°C° 0 mm 1 m/s 761 mmHg 84%
    05:00 +25°C° 0 mm 1 m/s 761 mmHg 79%
    06:00 +26°C° 0 mm 2 m/s 761 mmHg 75%
    07:00 +27°C° 0 mm 2 m/s 762 mmHg 70%
    08:00 +28°C° 0 mm 2 m/s 762 mmHg 64%
    09:00 +30°C° 0 mm 3 m/s 761 mmHg 57%
    10:00 +31°C° 0 mm 3 m/s 761 mmHg 50%
    11:00 +33°C° 0 mm 3 m/s 761 mmHg 48%
    12:00 +34°C° 0 mm 4 m/s 760 mmHg 46%
    13:00 +34°C° 0 mm 4 m/s 759 mmHg 44%
    14:00 +34°C° 0 mm 4 m/s 759 mmHg 46%
    15:00 +33°C° 0 mm 4 m/s 759 mmHg 49%
    16:00 +32°C° 0 mm 4 m/s 758 mmHg 51%
    17:00 +30°C° 0 mm 4 m/s 758 mmHg 58%
    18:00 +28°C° 0 mm 3 m/s 759 mmHg 64%
    19:00 +27°C° 0 mm 3 m/s 759 mmHg 71%
    20:00 +26°C° 0 mm 3 m/s 759 mmHg 75%
    21:00 +26°C° 0 mm 2 m/s 760 mmHg 79%
    22:00 +25°C° 0 mm 2 m/s 760 mmHg 83%
    23:00 +25°C° 0 mm 2 m/s 759 mmHg 85%

    23 Janeiro, Quarta-feira

    Tempo Temperatura Precipitação Vento Pressão Humidade
    00:00 +24°C° 0 mm 1 m/s 759 mmHg 86%
    01:00 +24°C° 0 mm 1 m/s 759 mmHg 88%
    02:00 +24°C° 0 mm 1 m/s 759 mmHg 88%
    03:00 +24°C° 0 mm 1 m/s 759 mmHg 89%
    04:00 +23°C° 0 mm 1 m/s 758 mmHg 89%
    05:00 +24°C° 0 mm 1 m/s 759 mmHg 86%
    06:00 +25°C° 0 mm 1 m/s 759 mmHg 83%
    07:00 +26°C° 0 mm 1 m/s 759 mmHg 80%
    08:00 +28°C° 0 mm 1 m/s 759 mmHg 70%
    09:00 +30°C° 0 mm 1 m/s 759 mmHg 60%
    10:00 +32°C° 0 mm 1 m/s 759 mmHg 50%
    11:00 +35°C° 0 mm 2 m/s 758 mmHg 46%
    12:00 +36°C° 0 mm 2 m/s 757 mmHg 41%
    13:00 +38°C° 0 mm 3 m/s 757 mmHg 37%
    14:00 +37°C° 0 mm 4 m/s 756 mmHg 42%
    15:00 +36°C° 0 mm 4 m/s 756 mmHg 46%
    16:00 +34°C° 0 mm 5 m/s 755 mmHg 51%
    17:00 +33°C° 0 mm 5 m/s 756 mmHg 58%
    18:00 +30°C° 0 mm 4 m/s 756 mmHg 65%
    19:00 +28°C° 0 mm 4 m/s 756 mmHg 72%
    20:00 +28°C° 0.1 mm 3 m/s 757 mmHg 75%
    21:00 +27°C° 0.1 mm 3 m/s 757 mmHg 78%
    22:00 +27°C° 0.1 mm 2 m/s 758 mmHg 81%
    23:00 +26°C° 0.5 mm 2 m/s 758 mmHg 83%
    Mostrar mais